Regional Weather Roundup
Issued by NWS Mt. Holly, NJ

Home | Current Version | Previous Version | Text Only | Print | Product List | Glossary On
Versions: 1 2 3 4 5 6 7 8 9 10 11 12 13 14 15 16 17 18 19 20 21 22 23 24 25 26 27 28 29 30 31 32 33 34 35 36 37 38 39 40 41 42 43 44 45 46 47 48 49 50
000
ASUS41 KPHI 090912
RWRPHI

REGIONAL WEATHER ROUNDUP
NATIONAL WEATHER SERVICE MOUNT HOLLY NJ
400 AM EST TUE FEB 09 2016

NOTE:  "FAIR" INDICATES FEW OR NO CLOUDS BELOW 12,000 FEET WITH NO
SIGNIFICANT WEATHER AND/OR OBSTRUCTIONS TO VISIBILITY.

 * = STATION DOES NOT REPORT PRECIPITATION (E.G. RAIN, SNOW, ETC.)
        OR FOG.

NJZ015>026-091000-
SOUTHERN NEW JERSEY

CITY           SKY/WX    TMP DP  RH WIND       PRES   REMARKS
POMONA         CLOUDY    34  31  88 E8        29.61F WCI  27
WILDWOOD*      CLOUDY    37  32  81 E8        29.60F WCI  31
MILLVILLE      CLOUDY    33  32  96 NE8       29.60F WCI  26
WRIGHTSTOWN    CLOUDY    30  30 100 NE10      29.61F WCI  21
MOUNT HOLLY    CLOUDY    30  28  92 NE7       29.64F WCI  23
TRENTON        CLOUDY    29  25  85 E12       29.64F WCI  19

$$
NJZ001>014-091000-
NORTHERN NEW JERSEY

CITY           SKY/WX    TMP DP  RH WIND       PRES   REMARKS
SUSSEX         LGT SNOW  25  22  88 NE5       29.66F FOG     WCI  19
ANDOVER*         N/A     26  21  81 CALM      29.65F
MORRISTOWN     CLOUDY    27  21  80 NE5       29.69F WCI  21
NEWARK         FLURRIES  29  23  78 NE5       29.70F WCI  24
TETERBORO      FLURRIES  27  20  75 NE6       29.70F WCI  20
CALDWELL       FLURRIES  27  21  78 E9        29.70F WCI  18
SOMERVILLE     CLOUDY    29  24  82 VRB3      29.66F
ALLAIRE*       CLOUDY    30  21  69 NE10      29.64F WCI  21
TOMS RIVER*    CLOUDY    32  27  80 NE9       29.63F WCI  24

$$
PAZ043-044-047-054-055-060>062-066>071-091000-
EASTERN PENNSYLVANIA

CITY           SKY/WX    TMP DP  RH WIND       PRES   REMARKS
PHILADELPHIA   CLOUDY    32  27  81 NE9       29.64F WCI  24
NORTH PHILA    CLOUDY    32  27  81 E13       29.65F WCI  22
BLUE BELL*       N/A     30  28  93 NE6       29.62F WCI  24
DOYLESTOWN     CLOUDY    27  25  92 NE5       29.62F WCI  22
QUAKERTOWN*    CLOUDY    28  27  93 E7        29.63F WCI  21
POTTSTOWN      CLOUDY    29  26  89 E6        29.63F WCI  23
LANCASTER      CLOUDY    30  28  92 E7        29.60F WCI  23
COATESVILLE    CLOUDY    30  30 100 E10       29.60F WCI  21
READING        CLOUDY    31  26  82 E8        29.61F WCI  23
ALLENTOWN      LGT SNOW  30  25  80 NE8       29.64F WCI  23
MOUNT POCONO   LGT SNOW  22  20  92 SE10      29.55F FOG     WCI  11
HAZLETON       MIX PCPN  27  25  93 E7        29.58F WCI  19
LEHIGHTON      LGT SNOW  30  27  86 E6        29.64F WCI  24
WILKES BARRE   LGT SNOW  28  21  75 E3        29.59F

$$
DEZALL-MDZ008-012-015-019-020-091000-
DELAWARE AND EASTERN MARYLAND

CITY           SKY/WX    TMP DP  RH WIND       PRES   REMARKS
WILMINGTON     CLOUDY    32  29  88 NE10      29.62F WCI  24
DOVER          CLOUDY    36  36 100 NE12      29.58F WCI  27
GEORGETOWN     MIX PCPN  37  36  96 NE6       29.59F WCI  32
EASTON         CLOUDY    36  36 100 E5        29.61F WCI  32
PATUXENT       CLOUDY    38  35  89 E10       29.56F WCI  31
OCEAN CITY     LGT RAIN  40  36  86 E10       29.57F WCI  33
WALLOPS ISLAND LGT RAIN  41  38  89 E8        29.57F
CAMBRIDGE      MOCLDY    34  34 100 E3        29.57F
SALISBURY      LGT RAIN  37  36  96 NE6       29.57F WCI  32

$$
PAZ001-021-NYZ056-072-MDZ011-DCZ001-091000-
OTHER NEARBY LOCATIONS

CITY           SKY/WX    TMP DP  RH WIND       PRES   REMARKS
HARRISBURG     LGT SNOW  32  29  88 E10       29.59F WCI  24
STATE COLLEGE  CLOUDY    33  30  88 CALM      29.52F
WILLIAMSPORT   CLOUDY    32  27  81 NE17      29.57F WCI  21
BINGHAMTON     CLOUDY    25  23  92 SE9       29.53F WCI  15
NEW YORK CITY  CLOUDY    28  21  75 VRB5      29.71F HAZE    WCI  23
BALTIMORE      LGT SNOW  34  33  96 E7        29.58F FOG     WCI  28
WASHINGTON DC  LGT RAIN  38  34  85 E8        29.58F WCI  32

$$



USA.gov is the U.S. government's official web portal to all federal, state and local government web resources and services.